FW7911 Weather Reports


time (UTC)temp
F
wind
direction
speed
knots
gust
knots
rain 1hr
in
rain 24hr
in
rain mn
in
humidity
%
barometer
mb
20260502195110 65 172 2.6 4.3 0.00 0.00 0.00 65 1016.2
20260502194110 65 177 4.3 6.1 0.00 0.00 0.00 64 1016.2
20260502193110 66 171 3.5 4.3 0.00 0.00 0.00 64 1016.2
20260502191110 67 183 2.6 4.3 0.00 0.00 0.00 64 1016.1
20260502190110 67 156 0.9 2.6 0.00 0.00 0.00 62 1016.0
20260502185109 68 172 1.7 2.6 0.00 0.00 0.00 61 1016.0
20260502184109 70 168 2.6 4.3 0.00 0.00 0.00 58 1015.8
20260502183109 71 167 1.7 4.3 0.00 0.00 0.00 56 1015.7
20260502182109 74 155 2.6 3.5 0.00 0.00 0.00 53 1015.8
20260502180109 78 289 0.0 0.9 0.00 0.00 0.00 46 1015.7
20260502170114 82 294 0.0 1.7 0.00 0.00 0.00 37 1015.7
20260502162113 82 275 0.9 2.6 0.00 0.00 0.00 38 1015.9
20260502161113 82 271 0.0 1.7 0.00 0.00 0.00 39 1016.2
20260502152113 82 264 0.0 4.3 0.00 0.00 0.00 37 1016.5
20260502151113 82 264 1.7 6.1 0.00 0.00 0.00 34 1016.7
20260502150114 82 312 4.3 5.2 0.00 0.00 0.00 36 1016.8
20260502123111 79 253 2.6 6.1 0.00 0.00 0.00 43 1019.1
20260502122111 78 279 5.2 8.7 0.00 0.00 0.00 43 1019.2
20260502121111 78 305 3.5 10.4 0.00 0.00 0.00 44 1019.4
20260502120111 78 228 4.3 8.7 0.00 0.00 0.00 43 1019.4
20260502114111 77 282 4.3 8.7 0.00 0.00 0.00 45 1019.7
20260502113111 78 246 4.3 9.6 0.00 0.00 0.00 43 1019.8
20260502112111 77 211 3.5 6.1 0.00 0.00 0.00 47 1019.9
20260502111111 77 255 4.3 5.2 0.00 0.00 0.00 47 1020.0
20260502110110 77 282 3.5 14.8 0.00 0.00 0.00 47 1020.2
20260502105111 76 257 4.3 10.4 0.00 0.00 0.00 47 1020.4
20260502103110 76 293 3.5 6.1 0.00 0.00 0.00 49 1020.6
20260502102110 75 248 3.5 7.0 0.00 0.00 0.00 50 1020.7
20260502101110 74 281 1.7 7.0 0.00 0.00 0.00 50 1020.8
20260502100110 74 235 2.6 7.0 0.00 0.00 0.00 49 1021.0
20260502091110 72 296 4.3 8.7 0.00 0.00 0.00 48 1021.4
20260502090110 71 251 4.3 9.6 0.00 0.00 0.00 50 1021.7
20260502080109 66 263 1.7 2.6 0.00 0.00 0.00 57 1021.9
20260502071109 62 274 0.0 0.9 0.00 0.00 0.00 59 1022.2
20260502070109 61 274 0.0 0.9 0.00 0.00 0.00 61 1022.2
20260502063109 59 275 0.0 0.0 0.00 0.00 0.00 64 1022.4
20260502062109 57 275 0.0 0.0 0.00 0.00 0.00 71 1022.4
20260502061109 55 275 0.0 0.9 0.00 0.00 0.00 71 1022.4
20260502060109 54 275 0.0 0.0 0.00 0.00 0.00 72 1022.4
20260502055108 53 275 0.0 0.0 0.00 0.00 0.00 73 1022.4
20260502054108 52 275 0.0 1.7 0.00 0.00 0.00 75 1022.3
20260502052108 51 274 0.0 0.0 0.00 0.00 0.00 78 1022.3
20260502051108 49 274 0.0 0.0 0.00 0.00 0.00 78 1022.2
20260502045108 48 274 0.0 0.9 0.00 0.00 0.00 79 1022.0
20260502044113 47 192 0.0 1.7 0.00 0.00 0.00 80 1022.2
20260502041113 45 191 0.9 1.7 0.00 0.00 0.00 83 1022.1
20260502040113 45 193 0.9 1.7 0.00 0.00 0.00 83 1022.0
20260502035113 45 193 0.9 1.7 0.00 0.00 0.00 82 1022.2
20260502033113 45 232 0.0 3.5 0.00 0.00 0.00 82 1022.2
20260502032112 45 263 0.0 0.9 0.00 0.00 0.00 81 1022.4
20260502030112 46 263 0.0 0.0 0.00 0.00 0.00 80 1022.2
20260502025112 45 263 0.0 0.0 0.00 0.00 0.00 81 1022.2
20260502023112 46 262 0.9 0.9 0.00 0.00 0.00 80 1022.2
20260502022112 46 263 0.0 0.9 0.00 0.00 0.00 80 1022.2
20260502020112 46 263 0.0 0.9 0.00 0.00 0.00 79 1022.2
20260502014112 47 263 0.0 0.0 0.00 0.00 0.00 78 1022.3
20260502012112 48 263 0.0 0.9 0.00 0.00 0.00 75 1022.2
20260502005111 50 263 0.0 0.9 0.00 0.00 0.00 72 1022.2
20260502004111 50 230 0.0 1.7 0.00 0.00 0.00 71 1022.2
20260502002111 50 229 0.0 0.0 0.00 0.00 0.00 68 1022.3
20260502001111 51 229 0.9 2.6 0.00 0.00 0.00 68 1022.3
20260502000111 51 229 1.7 1.7 0.00 0.00 0.00 69 1022.5
20260501234111 50 237 0.9 1.7 0.00 0.00 0.00 71 1022.4
20260501233111 50 237 1.7 2.6 0.00 0.00 0.00 71 1022.5
20260501232111 51 243 0.9 3.5 0.00 0.00 0.00 70 1022.6
20260501231111 52 252 1.7 3.5 0.00 0.00 0.00 68 1022.7
20260501230110 53 142 1.7 2.6 0.00 0.00 0.00 64 1022.5
20260501223110 53 178 2.6 4.3 0.00 0.00 0.00 66 1022.7
20260501221110 54 173 2.6 4.3 0.00 0.00 0.00 65 1022.5
20260501220110 54 118 2.6 4.3 0.00 0.00 0.00 66 1022.6
20260501215110 55 97 2.6 3.5 0.00 0.00 0.00 65 1022.6
20260501214110 54 26 0.9 2.6 0.00 0.00 0.00 67 1022.6
20260501213110 54 158 0.0 0.9 0.00 0.00 0.00 68 1022.5
20260501211110 56 165 0.9 1.7 0.00 0.00 0.00 66 1022.5
20260501210110 56 145 0.0 0.9 0.00 0.00 0.00 69 1022.5
20260501205110 57 152 0.0 0.9 0.00 0.00 0.00 67 1022.4
20260501203111 57 126 2.6 3.5 0.00 0.00 0.00 67 1022.5
20260501202111 59 139 2.6 5.2 0.00 0.00 0.00 64 1022.5
20260501201111 59 108 0.9 1.7 0.00 0.00 0.00 64 1022.7